Back to catalog

STARLINK-3366

AliveCommunicationsVLEO
NORAD 51104·PAYLOAD·🇺🇸 United States

Launched Jan 19, 2022 from Cape Canaveral Space Force Station

Loading…

Next Passes (next 24 hours)

TLE

FreshSource: CelesTrak SupGP

Epoch: Sep 15, 2026, 02:35 UTC

1 51104C 22005A   26258.10812500  .00060767  00000+0  26652-2 0  2586
2 51104  53.1976 155.8771 0001629  87.9518 131.5575 15.21422720    18

Track STARLINK-3366 in real time with AllMySat

Download on the App Store